User: anonymous   Login
Location: Unspecified
(0.0000°N, 0.0000°E)
Time: 03:02:25
(UTC+02:00)
Language:

Milstar 3 - Orbit

View from above orbital plane
View from above orbital plane
View from above satellite
View from above satellite

Ground track
Ground track

The orbit data is extracted from the following two-line orbital elements,

1 25724U 99023A   15207.11925174 0.00000010  00000-0  12499-3 0    00
2 25724  28.2266 142.0841 2134299 136.5863 223.4132  9.37474515    02
Epoch (UTC): 26 July 2015 02:51:43
Eccentricity: 0.2134299
inclination: 28.2266°
perigee height: 1095 km
apogee height: 5150 km
right ascension of ascending node: 142.0841°
argument of perigee: 136.5863°
revolutions per day: 9.37474515
mean anomaly at epoch: 223.4132°
orbit number at epoch: 0

The dashed part of the orbit path shows where the satellite is in the earth's shadow,  

DLR